| time (UTC) | temp F | wind direction | speed MPH | gust MPH | rain 1hr in | rain 24hr in | rain mn in | humidity % | barometer mb |
| 20260509011530 | 58 | 330 | 0.0 | 1.0 | 0.00 | 0.01 | 0.01 | 91 | 1008.6 |
| 20260509010029 | 58 | 342 | 0.0 | 1.0 | 0.00 | 0.01 | 0.01 | 89 | 1008.0 |
| 20260509004528 | 59 | 342 | 0.0 | 1.0 | 0.01 | 0.01 | 0.01 | 88 | 1007.9 |
| 20260509003037 | 59 | 8 | 0.0 | 4.0 | 0.01 | 0.01 | 0.01 | 86 | 1008.4 |
| 20260509001526 | 60 | 325 | 3.0 | 8.0 | 0.01 | 0.01 | 0.01 | 84 | 1008.7 |
| 20260509000024 | 62 | 357 | 1.0 | 9.0 | 0.01 | 0.01 | 0.01 | 80 | 1008.5 |
| 20260508234523 | 64 | 323 | 2.0 | 7.0 | 0.00 | 0.00 | 0.00 | 73 | 1008.5 |
| 20260508233022 | 66 | 13 | 0.0 | 4.0 | 0.00 | 0.00 | 0.00 | 66 | 1008.5 |
| 20260508231522 | 67 | 321 | 2.0 | 7.0 | 0.00 | 0.00 | 0.00 | 64 | 1008.5 |
| 20260508230021 | 68 | 336 | 1.0 | 4.0 | 0.00 | 0.00 | 0.00 | 62 | 1008.4 |
| 20260508224520 | 69 | 337 | 1.0 | 4.0 | 0.00 | 0.00 | 0.00 | 61 | 1008.5 |
| 20260508223023 | 69 | 352 | 2.0 | 5.0 | 0.00 | 0.00 | 0.00 | 57 | 1008.3 |
| 20260508221519 | 70 | 312 | 1.0 | 6.0 | 0.00 | 0.00 | 0.00 | 58 | 1008.0 |
| 20260508220017 | 70 | 336 | 3.0 | 7.0 | 0.00 | 0.00 | 0.00 | 55 | 1008.3 |
| 20260508214518 | 70 | 320 | 3.0 | 8.0 | 0.00 | 0.00 | 0.00 | 54 | 1008.5 |
| 20260508213015 | 71 | 297 | 2.0 | 7.0 | 0.00 | 0.00 | 0.00 | 53 | 1008.7 |
| 20260508211516 | 71 | 238 | 2.0 | 8.0 | 0.00 | 0.00 | 0.00 | 54 | 1008.8 |
| 20260508210011 | 72 | 249 | 2.0 | 7.0 | 0.00 | 0.00 | 0.00 | 53 | 1009.1 |
| 20260508204510 | 71 | 300 | 3.0 | 10.0 | 0.00 | 0.00 | 0.00 | 52 | 1009.6 |
| 20260508203008 | 71 | 277 | 3.0 | 9.0 | 0.00 | 0.00 | 0.00 | 51 | 1009.6 |
| 20260508201507 | 71 | 305 | 4.0 | 9.0 | 0.00 | 0.00 | 0.00 | 50 | 1009.9 |
| 20260508200007 | 72 | 317 | 5.0 | 9.0 | 0.00 | 0.00 | 0.00 | 49 | 1009.9 |
| 20260508194507 | 71 | 229 | 7.0 | 12.0 | 0.00 | 0.00 | 0.00 | 48 | 1009.8 |
| 20260508193005 | 72 | 257 | 4.0 | 8.0 | 0.00 | 0.00 | 0.00 | 53 | 1009.8 |
| 20260508191510 | 72 | 320 | 6.0 | 14.0 | 0.00 | 0.00 | 0.00 | 49 | 1009.8 |
| 20260508190009 | 72 | 285 | 6.0 | 14.0 | 0.00 | 0.00 | 0.00 | 49 | 1009.8 |
| 20260508184502 | 72 | 236 | 3.0 | 7.0 | 0.00 | 0.00 | 0.00 | 55 | 1009.7 |
| 20260508183057 | 70 | 278 | 5.0 | 11.0 | 0.00 | 0.00 | 0.00 | 52 | 1009.9 |
| 20260508181559 | 69 | 214 | 3.0 | 10.0 | 0.00 | 0.00 | 0.00 | 56 | 1010.0 |
| 20260508180053 | 69 | 136 | 3.0 | 7.0 | 0.00 | 0.00 | 0.00 | 59 | 1010.1 |
| 20260508174557 | 67 | 215 | 3.0 | 7.0 | 0.00 | 0.00 | 0.00 | 58 | 1010.4 |
| 20260508173045 | 66 | 250 | 2.0 | 7.0 | 0.00 | 0.00 | 0.00 | 60 | 1010.8 |
| 20260508171543 | 66 | 208 | 4.0 | 12.0 | 0.00 | 0.00 | 0.00 | 60 | 1011.1 |
| 20260508170039 | 65 | 233 | 3.0 | 8.0 | 0.00 | 0.00 | 0.00 | 58 | 1011.4 |
| 20260508164537 | 64 | 217 | 3.0 | 7.0 | 0.00 | 0.00 | 0.00 | 62 | 1011.7 |
| 20260508163036 | 64 | 262 | 2.0 | 9.0 | 0.00 | 0.00 | 0.00 | 62 | 1011.8 |
| 20260508161533 | 63 | 234 | 5.0 | 10.0 | 0.00 | 0.00 | 0.00 | 62 | 1011.9 |
| 20260508160029 | 62 | 269 | 3.0 | 13.0 | 0.00 | 0.00 | 0.00 | 63 | 1012.2 |
| 20260508154528 | 62 | 158 | 3.0 | 11.0 | 0.00 | 0.00 | 0.00 | 62 | 1012.0 |
| 20260508153026 | 61 | 231 | 4.0 | 9.0 | 0.00 | 0.00 | 0.00 | 62 | 1012.0 |
| 20260508151529 | 61 | 160 | 5.0 | 12.0 | 0.00 | 0.00 | 0.00 | 63 | 1011.9 |
| 20260508150031 | 61 | 214 | 5.0 | 11.0 | 0.00 | 0.00 | 0.00 | 62 | 1012.1 |
| 20260508144522 | 61 | 202 | 7.0 | 13.0 | 0.00 | 0.00 | 0.00 | 63 | 1012.2 |
| 20260508143021 | 60 | 240 | 5.0 | 14.0 | 0.00 | 0.00 | 0.00 | 65 | 1012.5 |
| 20260508141518 | 59 | 214 | 5.0 | 10.0 | 0.00 | 0.00 | 0.00 | 65 | 1012.7 |
| 20260508140017 | 59 | 148 | 3.0 | 11.0 | 0.00 | 0.00 | 0.00 | 65 | 1012.8 |
| 20260508134519 | 59 | 223 | 6.0 | 11.0 | 0.00 | 0.00 | 0.00 | 64 | 1012.7 |
| 20260508133014 | 58 | 196 | 5.0 | 11.0 | 0.00 | 0.00 | 0.00 | 66 | 1012.6 |
| 20260508131508 | 57 | 241 | 4.0 | 9.0 | 0.00 | 0.00 | 0.00 | 67 | 1012.5 |
| 20260508130005 | 55 | 191 | 3.0 | 8.0 | 0.00 | 0.00 | 0.00 | 69 | 1012.5 |
| 20260508124501 | 54 | 195 | 3.0 | 7.0 | 0.00 | 0.00 | 0.00 | 70 | 1012.4 |
| 20260508123100 | 54 | 207 | 2.0 | 9.0 | 0.00 | 0.00 | 0.00 | 68 | 1012.6 |
| 20260508121602 | 54 | 230 | 5.0 | 7.0 | 0.00 | 0.00 | 0.00 | 69 | 1012.4 |
| 20260508120054 | 52 | 209 | 3.0 | 6.0 | 0.00 | 0.00 | 0.00 | 71 | 1012.6 |
| 20260508114521 | 52 | 214 | 3.0 | 8.0 | 0.00 | 0.00 | 0.00 | 71 | 1012.4 |
| 20260508113017 | 51 | 184 | 4.0 | 8.0 | 0.00 | 0.00 | 0.00 | 71 | 1012.3 |
| 20260508111516 | 50 | 211 | 4.0 | 7.0 | 0.00 | 0.00 | 0.00 | 72 | 1012.1 |
| 20260508110015 | 49 | 154 | 3.0 | 6.0 | 0.00 | 0.00 | 0.00 | 74 | 1012.1 |
| 20260508104520 | 49 | 205 | 3.0 | 6.0 | 0.00 | 0.00 | 0.00 | 74 | 1012.2 |
| 20260508103013 | 49 | 162 | 2.0 | 5.0 | 0.00 | 0.00 | 0.00 | 74 | 1012.3 |
| 20260508101516 | 50 | 203 | 3.0 | 6.0 | 0.00 | 0.00 | 0.00 | 74 | 1012.4 |
| 20260508100012 | 49 | 210 | 3.0 | 6.0 | 0.00 | 0.00 | 0.00 | 74 | 1012.4 |
| 20260508094511 | 49 | 195 | 3.0 | 7.0 | 0.00 | 0.00 | 0.00 | 74 | 1012.4 |
| 20260508093027 | 49 | 122 | 3.0 | 6.0 | 0.00 | 0.00 | 0.00 | 76 | 1012.5 |
| 20260508091535 | 49 | 156 | 1.0 | 3.0 | 0.00 | 0.00 | 0.00 | 75 | 1012.5 |
| 20260508090035 | 49 | 177 | 1.0 | 4.0 | 0.00 | 0.00 | 0.00 | 73 | 1012.5 |
| 20260508084520 | 50 | 198 | 1.0 | 3.0 | 0.00 | 0.00 | 0.00 | 72 | 1012.4 |
| 20260508083017 | 51 | 161 | 1.0 | 5.0 | 0.00 | 0.00 | 0.00 | 69 | 1012.5 |
| 20260508081517 | 51 | 195 | 2.0 | 5.0 | 0.00 | 0.00 | 0.00 | 69 | 1012.5 |
| 20260508080030 | 51 | 170 | 2.0 | 4.0 | 0.00 | 0.00 | 0.00 | 69 | 1012.7 |
| 20260508074523 | 51 | 216 | 2.0 | 5.0 | 0.00 | 0.00 | 0.00 | 69 | 1012.7 |
| 20260508073011 | 51 | 186 | 1.0 | 5.0 | 0.00 | 0.00 | 0.00 | 69 | 1012.9 |
| 20260508071522 | 51 | 158 | 1.0 | 2.0 | 0.00 | 0.00 | 0.00 | 68 | 1013.1 |
| 20260508070008 | 51 | 157 | 1.0 | 5.0 | 0.00 | 0.00 | 0.00 | 68 | 1013.0 |
| 20260508064507 | 52 | 159 | 1.0 | 4.0 | 0.00 | 0.00 | 0.00 | 67 | 1013.2 |
| 20260508063005 | 51 | 159 | 1.0 | 3.0 | 0.00 | 0.00 | 0.00 | 67 | 1013.4 |
| 20260508061502 | 52 | 148 | 1.0 | 3.0 | 0.00 | 0.00 | 0.00 | 66 | 1013.6 |
| 20260508060001 | 52 | 150 | 1.0 | 5.0 | 0.00 | 0.00 | 0.00 | 66 | 1013.8 |
| 20260508054601 | 52 | 209 | 1.0 | 4.0 | 0.00 | 0.00 | 0.00 | 66 | 1013.9 |
| 20260508053059 | 52 | 189 | 1.0 | 3.0 | 0.00 | 0.00 | 0.00 | 66 | 1014.0 |
| 20260508051657 | 52 | 162 | 1.0 | 3.0 | 0.00 | 0.00 | 0.00 | 66 | 1013.9 |
| 20260508050056 | 52 | 161 | 0.0 | 2.0 | 0.00 | 0.00 | 0.00 | 67 | 1013.9 |
| 20260508044555 | 52 | 220 | 0.0 | 3.0 | 0.00 | 0.00 | 0.00 | 68 | 1013.9 |
| 20260508043106 | 52 | 142 | 0.0 | 2.0 | 0.00 | 0.00 | 0.00 | 68 | 1014.0 |
| 20260508041554 | 52 | 157 | 0.0 | 2.0 | 0.00 | 0.00 | 0.00 | 68 | 1014.0 |
| 20260508040053 | 52 | 155 | 1.0 | 3.0 | 0.00 | 0.00 | 0.00 | 69 | 1013.9 |
| 20260508034553 | 51 | 165 | 1.0 | 2.0 | 0.00 | 0.00 | 0.00 | 74 | 1014.0 |
| 20260508033052 | 50 | 204 | 0.0 | 2.0 | 0.00 | 0.00 | 0.00 | 78 | 1014.1 |
| 20260508031552 | 50 | 159 | 0.0 | 1.0 | 0.00 | 0.00 | 0.00 | 77 | 1014.1 |
| 20260508030052 | 50 | 164 | 0.0 | 1.0 | 0.00 | 0.00 | 0.00 | 79 | 1014.2 |
| 20260508024554 | 51 | 207 | 0.0 | 1.0 | 0.00 | 0.00 | 0.00 | 75 | 1014.3 |
| 20260508023050 | 51 | 208 | 0.0 | 0.0 | 0.00 | 0.00 | 0.00 | 72 | 1014.3 |
| 20260508021552 | 52 | 138 | 0.0 | 0.0 | 0.00 | 0.00 | 0.00 | 74 | 1014.2 |
| 20260508020050 | 52 | 138 | 0.0 | 2.0 | 0.00 | 0.00 | 0.00 | 71 | 1014.1 |
| 20260508014548 | 53 | 188 | 0.0 | 0.0 | 0.00 | 0.00 | 0.00 | 69 | 1014.0 |
| 20260508013047 | 55 | 188 | 0.0 | 0.0 | 0.00 | 0.00 | 0.00 | 63 | 1013.9 |